Precipitable_Water
0.39 0.61 0.82 1.10 1.22 1.39 1.42 1.47 1.44 1.50 1.41 1.32 1.32 1.27 1.24 1.31 1.28 1.28 1.17 0.95 0.91 0.85 0.77 0.75 0.72 0.74 0.69 0.64 0.61 0.54 0.45 0.38 0.34 0.30 0.30 0.31 0.31 0.31 0.32 0.33 0.32 0.32 0.33
0.38 0.60 0.69 0.93 1.13 1.26 1.40 1.40 1.36 1.44 1.48 1.36 1.31 1.34 1.33 1.35 1.34 1.31 1.26 1.13 0.95 0.82 0.75 0.75 0.70 0.72 0.67 0.64 0.59 0.50 0.41 0.38 0.35 0.29 0.29 0.26 0.29 0.31 0.32 0.34 0.35 0.34 0.35
0.43 0.43 0.69 0.83 1.07 1.20 1.33 1.30 1.25 1.34 1.47 1.44 1.37 1.38 1.40 1.33 1.29 1.29 1.27 1.22 1.07 0.90 0.75 0.73 0.71 0.70 0.69 0.61 0.56 0.49 0.44 0.35 0.34 0.33 0.30 0.27 0.26 0.29 0.33 0.34 0.35 0.36 0.38
0.46 0.47 0.50 0.81 1.06 1.07 1.29 1.31 1.21 1.30 1.39 1.46 1.37 1.28 1.20 1.23 1.22 1.27 1.30 1.23 1.14 0.98 0.85 0.77 0.75 0.71 0.66 0.60 0.55 0.51 0.47 0.39 0.32 0.33 0.35 0.36 0.33 0.28 0.28 0.34 0.35 0.37 0.38
0.47 0.48 0.56 0.66 0.97 1.12 1.13 1.35 1.26 1.30 1.32 1.36 1.37 1.32 1.28 1.32 1.40 1.25 1.19 1.14 1.12 1.03 0.88 0.79 0.76 0.74 0.70 0.63 0.55 0.49 0.46 0.42 0.36 0.33 0.34 0.35 0.36 0.35 0.31 0.29 0.33 0.38 0.39
0.45 0.50 0.55 0.66 0.86 1.18 1.11 1.25 1.19 1.23 1.27 1.28 1.31 1.30 1.25 1.22 1.18 1.18 1.15 1.06 1.05 1.01 0.92 0.83 0.75 0.72 0.68 0.64 0.59 0.55 0.51 0.46 0.40 0.36 0.35 0.35 0.35 0.35 0.33 0.31 0.33 0.33 0.38
0.42 0.46 0.52 0.60 0.76 0.94 1.10 1.07 1.07 1.00 1.10 1.12 1.10 1.13 1.13 1.12 1.11 1.11 1.11 1.02 0.98 0.95 0.95 0.93 0.79 0.71 0.67 0.64 0.59 0.55 0.54 0.51 0.45 0.40 0.37 0.38 0.36 0.37 0.37 0.37 0.37 0.36 0.39
0.44 0.46 0.51 0.56 0.64 0.82 0.97 1.01 1.00 0.99 0.96 0.99 1.02 1.02 1.01 1.04 1.13 1.19 1.16 1.11 1.03 1.00 1.00 0.96 0.85 0.73 0.68 0.63 0.58 0.54 0.52 0.51 0.47 0.42 0.40 0.40 0.42 0.42 0.39 0.38 0.39 0.39 0.42
0.41 0.46 0.52 0.54 0.58 0.67 0.80 0.91 0.92 0.96 0.91 0.95 0.98 1.03 1.02 1.00 1.12 1.20 1.24 1.19 1.08 0.99 0.97 0.92 0.83 0.78 0.69 0.63 0.57 0.53 0.51 0.50 0.47 0.44 0.43 0.43 0.44 0.45 0.43 0.43 0.43 0.41 0.37
0.45 0.50 0.54 0.58 0.62 0.65 0.69 0.78 0.85 0.82 0.84 0.86 0.85 0.94 0.96 0.96 1.06 1.20 1.20 1.16 1.12 1.07 1.11 0.97 0.82 0.73 0.67 0.61 0.58 0.54 0.53 0.50 0.47 0.46 0.45 0.45 0.46 0.45 0.45 0.44 0.43 0.40 0.38
0.36 0.43 0.51 0.55 0.61 0.68 0.71 0.71 0.75 0.80 0.79 0.86 0.83 0.83 0.84 0.88 0.98 1.11 1.20 1.20 1.12 1.09 1.00 0.98 0.96 0.87 0.81 0.75 0.62 0.56 0.52 0.49 0.47 0.47 0.45 0.46 0.44 0.42 0.45 0.45 0.44 0.41 0.40
0.41 0.42 0.45 0.52 0.58 0.64 0.71 0.75 0.77 0.79 0.81 0.89 0.85 0.80 0.80 0.84 0.93 1.01 1.11 1.15 1.14 1.14 1.21 1.02 0.92 0.83 0.78 0.75 0.70 0.58 0.60 0.51 0.48 0.50 0.47 0.45 0.46 0.48 0.49 0.47 0.46 0.44 0.43
0.49 0.52 0.52 0.52 0.57 0.62 0.68 0.76 0.81 0.79 0.82 0.85 0.85 0.82 0.80 0.83 0.93 0.98 1.03 1.06 1.07 1.13 1.11 1.01 0.95 0.83 0.76 0.69 0.62 0.58 0.53 0.52 0.50 0.50 0.51 0.48 0.48 0.49 0.46 0.46 0.45 0.44 0.43
0.52 0.56 0.57 0.59 0.62 0.64 0.67 0.74 0.81 0.80 0.82 0.83 0.81 0.78 0.76 0.85 0.91 0.93 0.97 0.98 1.02 1.08 1.09 1.05 0.96 0.77 0.77 0.72 0.65 0.57 0.53 0.51 0.51 0.51 0.47 0.47 0.47 0.47 0.47 0.45 0.45 0.44 0.43
0.50 0.57 0.61 0.63 0.64 0.68 0.73 0.75 0.81 0.82 0.83 0.81 0.76 0.77 0.80 0.83 0.87 0.89 0.92 0.96 0.98 1.01 1.06 0.94 0.97 0.91 0.81 0.74 0.65 0.62 0.51 0.48 0.46 0.48 0.48 0.48 0.49 0.49 0.48 0.47 0.45 0.45 0.44
0.53 0.58 0.61 0.63 0.64 0.66 0.69 0.82 0.84 0.84 0.87 0.83 0.80 0.83 0.86 0.81 0.82 0.84 0.86 0.86 0.87 0.95 1.01 1.01 1.00 0.87 0.78 0.74 0.65 0.53 0.47 0.49 0.48 0.48 0.49 0.52 0.54 0.51 0.51 0.50 0.49 0.47 0.44
0.53 0.58 0.61 0.63 0.64 0.69 0.74 0.81 0.87 0.91 0.90 0.89 0.89 0.89 0.90 0.85 0.83 0.86 0.85 0.83 0.82 0.88 0.95 0.99 0.98 0.87 0.74 0.69 0.62 0.56 0.52 0.51 0.51 0.51 0.52 0.55 0.52 0.53 0.53 0.52 0.50 0.49 0.46
0.56 0.59 0.61 0.63 0.65 0.69 0.75 0.80 0.86 0.89 0.92 0.92 0.90 0.91 0.91 0.87 0.88 0.88 0.86 0.84 0.84 0.81 0.83 0.82 0.91 0.74 0.70 0.69 0.64 0.62 0.63 0.63 0.57 0.54 0.54 0.51 0.52 0.56 0.53 0.51 0.49 0.49 0.51
0.57 0.59 0.62 0.65 0.68 0.69 0.72 0.77 0.81 0.84 0.85 0.85 0.85 0.88 0.89 0.87 0.88 0.87 0.84 0.88 0.88 0.83 0.82 0.81 0.75 0.82 0.79 0.72 0.63 0.66 0.69 0.62 0.53 0.54 0.54 0.52 0.54 0.54 0.52 0.48 0.50 0.53 0.52
0.56 0.57 0.61 0.64 0.67 0.68 0.72 0.76 0.81 0.83 0.81 0.84 0.86 0.89 0.85 0.85 0.87 0.88 0.88 0.86 0.83 0.83 0.87 0.79 0.86 0.87 0.76 0.70 0.78 0.67 0.59 0.53 0.53 0.54 0.51 0.52 0.54 0.53 0.52 0.50 0.53 0.51 0.50
0.53 0.56 0.59 0.59 0.63 0.66 0.70 0.72 0.78 0.81 0.88 0.90 0.90 0.88 0.86 0.86 0.89 0.90 0.91 0.89 0.85 0.80 0.79 0.80 0.83 0.80 0.80 0.81 0.77 0.62 0.64 0.64 0.55 0.51 0.53 0.57 0.55 0.54 0.51 0.54 0.54 0.51 0.49
0.49 0.51 0.54 0.59 0.64 0.67 0.69 0.69 0.71 0.79 0.88 0.91 0.89 0.87 0.87 0.86 0.88 0.89 0.90 0.88 0.87 0.83 0.80 0.77 0.81 0.82 0.86 0.83 0.72 0.66 0.66 0.58 0.54 0.56 0.62 0.55 0.56 0.52 0.58 0.56 0.55 0.50 0.46
0.44 0.48 0.51 0.57 0.63 0.66 0.70 0.68 0.71 0.76 0.84 0.86 0.86 0.87 0.89 0.89 0.86 0.88 0.87 0.83 0.81 0.81 0.78 0.75 0.74 0.77 0.81 0.80 0.75 0.71 0.66 0.59 0.67 0.62 0.55 0.58 0.58 0.60 0.59 0.59 0.52 0.47 0.43
0.43 0.47 0.49 0.53 0.56 0.64 0.68 0.70 0.73 0.75 0.79 0.82 0.83 0.85 0.86 0.84 0.85 0.83 0.84 0.83 0.80 0.78 0.78 0.77 0.74 0.73 0.74 0.78 0.75 0.75 0.67 0.70 0.64 0.58 0.63 0.63 0.59 0.59 0.61 0.56 0.50 0.45 0.40
0.41 0.47 0.49 0.51 0.55 0.60 0.66 0.70 0.74 0.76 0.72 0.76 0.80 0.82 0.82 0.82 0.79 0.82 0.79 0.78 0.82 0.84 0.78 0.77 0.76 0.75 0.72 0.75 0.78 0.75 0.72 0.67 0.63 0.66 0.63 0.57 0.56 0.56 0.53 0.51 0.47 0.42 0.37
0.42 0.45 0.49 0.51 0.53 0.58 0.62 0.66 0.72 0.75 0.73 0.71 0.74 0.78 0.80 0.78 0.78 0.77 0.73 0.77 0.82 0.82 0.81 0.80 0.77 0.76 0.75 0.74 0.74 0.72 0.69 0.68 0.66 0.61 0.57 0.55 0.54 0.52 0.50 0.45 0.40 0.38 0.34
Wind_Speed
48 46 46 47 48 49 48 47 44 42 41 40 40 38 38 36 34 33 32 32 31 30 30 29 28 27 25 23 22 19 17 15 15 12 9 7 6 6 6 6 6 6 7
49 47 47 47 47 48 50 48 46 44 42 40 39 38 38 36 35 34 33 33 32 30 30 31 29 28 26 25 23 21 19 17 17 14 12 11 10 9 9 9 9 9 9
46 50 48 49 49 48 49 49 47 46 44 42 39 38 37 35 34 34 34 33 33 31 30 30 30 29 28 26 25 23 21 20 18 17 14 13 13 12 12 11 11 11 11
45 48 51 50 49 50 48 49 47 46 45 43 41 40 37 36 34 34 33 34 34 32 31 31 31 30 29 27 26 25 23 22 20 18 15 14 13 14 13 14 13 13 14
47 46 50 51 49 49 49 49 47 47 45 44 43 40 38 36 34 34 33 34 34 34 33 32 32 31 30 28 27 26 25 24 22 20 17 15 15 14 14 15 15 16 16
48 48 49 50 50 48 49 48 47 47 46 44 43 42 39 38 36 35 34 35 34 33 33 33 32 31 31 30 28 27 26 25 23 21 19 18 17 16 16 16 16 17 17
48 49 48 50 51 51 49 49 48 47 46 45 43 42 41 39 38 38 36 35 35 35 34 33 32 31 31 30 29 29 27 26 25 24 21 20 18 18 18 18 18 18 18
44 50 49 49 51 52 51 49 49 48 47 45 44 42 40 39 38 38 37 36 35 34 34 34 33 33 32 31 30 29 28 26 25 24 23 22 20 20 20 19 19 19 20
46 48 49 50 51 51 51 50 49 49 48 46 44 43 40 39 39 38 38 36 35 35 35 34 33 33 32 32 31 30 29 28 27 25 24 23 22 21 21 21 21 20 21
42 42 47 48 48 50 51 50 49 49 48 47 45 44 41 40 39 39 39 37 35 34 33 33 34 33 33 32 32 31 30 29 28 27 25 25 23 22 22 21 21 21 21
39 41 43 48 48 48 48 49 48 48 49 49 46 45 42 41 40 39 39 38 36 34 35 32 33 31 32 31 32 31 31 30 29 28 26 25 24 22 21 21 22 22 22
32 37 41 44 47 47 46 46 47 46 48 49 47 45 44 42 41 41 40 39 38 36 35 33 34 32 33 31 31 30 31 30 29 27 26 25 25 23 22 22 22 23 23
27 30 34 43 45 46 46 46 45 44 45 47 48 46 44 43 42 41 41 40 38 37 36 34 34 33 33 31 31 31 31 30 29 28 27 26 25 24 23 23 23 23 23
21 26 28 35 42 44 45 45 44 43 43 45 45 46 45 44 43 42 41 41 41 39 38 35 33 33 32 32 32 31 31 30 29 29 28 27 25 25 24 23 23 23 22
16 19 24 31 36 39 42 44 43 42 43 43 43 44 44 43 43 42 42 41 41 40 39 38 36 34 33 32 32 32 31 30 29 29 28 27 26 25 24 24 23 23 22
12 16 21 27 31 33 37 41 41 41 41 41 41 41 41 42 42 42 42 42 41 40 40 38 37 35 35 33 32 32 31 30 30 29 28 27 26 25 24 23 23 23 23
11 13 17 22 27 30 33 35 39 40 40 40 40 40 40 39 40 40 40 42 42 41 40 38 37 35 34 34 34 33 32 32 31 30 28 27 26 25 24 23 22 22 24
12 12 13 16 21 25 30 32 36 38 38 37 38 39 39 39 39 38 38 39 40 40 40 39 39 37 37 36 35 33 33 32 31 30 29 28 26 25 24 22 22 22 23
11 10 10 12 15 19 23 28 33 36 37 37 36 38 38 37 38 37 37 37 38 38 38 38 38 37 34 35 34 34 33 31 31 30 29 28 26 25 24 23 22 22 21
8 8 7 9 11 13 19 24 28 31 34 35 36 36 36 37 37 36 35 35 35 35 36 36 37 37 36 35 35 34 32 31 30 29 28 27 26 25 24 23 21 21 21
6 4 5 6 8 11 16 19 23 26 30 31 32 33 32 34 36 35 34 34 33 32 34 34 35 35 35 34 34 34 33 32 30 29 28 27 25 24 23 21 21 19 19
4 4 3 4 6 9 14 17 20 22 26 29 30 31 30 31 34 34 33 32 32 31 31 32 32 32 33 34 32 32 31 32 31 29 28 27 25 23 21 20 19 19 19
2 2 2 4 5 6 11 15 17 21 25 27 27 28 28 28 30 31 32 31 30 30 29 29 30 30 31 32 32 31 31 31 30 29 27 26 25 23 20 18 18 19 20
2 1 0 3 5 6 9 12 16 20 23 25 26 27 27 27 29 30 30 30 30 29 28 27 29 29 29 30 29 28 29 30 29 28 26 25 24 22 21 21 21 21 21
3 1 1 3 5 7 8 10 13 18 23 24 24 25 26 26 27 28 28 28 29 28 29 29 29 28 28 29 29 28 26 27 28 27 27 26 25 24 23 22 22 22 21
2 1 2 3 5 7 8 8 9 15 22 23 24 25 23 24 23 27 25 25 25 24 23 25 26 27 27 27 28 27 27 27 26 24 24 25 25 24 24 22 21 21 20
Wind_Direction
218 215 212 210 209 207 206 205 204 204 203 202 201 202 203 203 204 204 203 203 203 204 203 202 202 202 203 203 202 202 202 204 203 206 211 224 234 244 253 262 269 276 284
215 214 212 210 208 208 206 205 205 204 203 202 202 202 201 203 204 204 204 204 204 204 205 204 205 205 206 206 206 207 209 211 212 220 224 237 245 253 260 264 269 275 281
215 213 211 208 207 206 205 205 205 204 204 202 200 200 201 201 203 205 206 206 206 206 206 205 206 207 208 210 210 212 214 215 221 221 237 243 251 250 260 265 269 274 279
216 212 210 208 207 206 206 204 203 203 203 203 201 201 203 203 206 207 208 207 207 208 208 207 208 209 210 212 214 216 219 219 223 228 239 247 248 254 258 263 269 274 279
214 211 209 208 207 205 205 203 204 203 203 203 203 203 204 206 203 206 207 207 208 209 209 210 210 211 213 214 216 219 221 223 226 232 238 245 252 257 263 266 268 272 277
212 212 209 208 206 204 203 204 203 204 204 204 205 206 207 208 208 209 209 209 210 210 211 211 212 213 215 217 219 221 223 225 229 233 238 245 254 259 264 269 270 273 277
213 210 209 207 205 204 203 204 204 204 205 206 207 208 209 210 210 210 210 210 211 213 213 213 214 215 217 219 221 223 225 228 231 234 240 247 255 261 263 268 272 276 278
211 209 208 207 206 205 205 205 205 206 206 207 207 208 209 211 211 211 211 212 212 212 212 214 215 217 218 220 222 224 226 228 232 235 241 249 257 261 264 268 270 276 279
209 207 207 207 207 206 205 206 207 208 208 209 208 208 210 211 211 212 212 213 212 215 216 216 217 219 220 222 224 226 228 231 234 238 242 248 256 261 264 267 269 275 280
205 204 205 205 205 205 207 208 209 210 210 209 209 210 211 212 212 212 211 213 214 214 215 216 220 220 222 224 225 228 230 232 236 239 243 249 255 260 263 266 271 276 280
201 204 204 206 205 206 207 209 210 210 210 210 211 211 212 213 213 213 213 214 214 215 217 219 214 219 221 225 226 229 231 232 236 239 243 247 252 256 260 267 271 276 281
201 202 204 204 205 205 206 207 208 209 210 210 211 212 213 214 214 214 214 215 214 216 213 217 222 223 225 227 228 229 231 232 234 237 241 246 250 254 262 268 271 276 281
192 194 200 201 202 204 205 205 206 208 209 209 211 212 213 213 214 214 215 216 217 215 218 222 222 224 227 229 228 230 231 233 235 239 243 245 248 253 261 266 271 277 281
183 192 195 197 200 202 203 205 207 208 208 209 210 212 213 214 215 215 216 216 217 218 218 219 223 226 227 228 229 230 231 234 237 240 242 244 249 254 259 264 270 276 281
168 182 188 191 196 200 203 204 206 207 207 209 210 212 213 214 215 216 216 217 218 219 222 223 227 226 227 229 229 230 232 234 236 238 240 245 249 253 259 264 269 274 279
149 168 179 186 194 198 201 203 204 205 206 208 210 210 212 214 215 217 217 218 220 221 221 223 225 225 227 228 229 231 232 232 235 235 240 243 249 253 258 264 269 273 278
135 155 176 188 193 196 200 200 203 203 205 207 209 210 212 213 215 216 219 219 220 220 222 223 223 226 225 228 230 231 232 233 236 237 239 244 249 252 258 264 270 275 280
124 135 152 176 187 196 200 203 203 202 203 204 207 208 210 213 214 215 218 217 219 221 221 223 223 228 231 229 229 230 231 234 234 236 241 244 247 251 256 262 269 276 281
114 132 145 158 174 188 196 201 202 202 204 206 207 208 210 212 213 214 216 217 218 221 222 223 224 225 224 226 227 228 231 231 233 237 240 242 246 249 252 260 269 276 277
112 123 136 158 174 185 193 196 196 198 202 205 207 207 210 212 212 213 215 216 218 220 219 222 224 224 226 226 227 227 229 231 233 235 238 239 244 246 252 262 267 269 273
97 118 158 170 183 188 188 190 192 196 201 201 203 206 209 210 211 212 214 215 216 217 219 221 221 225 225 226 226 226 230 230 230 233 236 239 241 247 252 259 266 267 272
76 80 116 146 172 188 190 192 195 200 199 198 202 205 208 210 209 210 211 213 213 215 218 219 221 222 221 219 223 226 229 228 229 232 237 236 238 242 252 256 261 265 273
71 67 89 158 158 168 187 195 200 202 197 197 199 201 203 204 205 205 207 211 211 213 216 216 216 219 217 220 225 226 225 226 233 231 232 233 236 241 248 254 261 267 274
20 339 151 184 187 188 187 196 202 200 194 194 196 198 200 201 203 207 207 209 209 213 212 214 216 217 217 218 219 223 226 228 226 224 231 232 236 240 249 257 263 268 273
334 306 227 188 186 182 182 189 195 194 192 192 193 193 197 197 200 206 208 209 214 214 216 217 214 213 218 217 220 220 224 222 222 227 230 234 238 246 253 262 264 268 271
303 266 189 184 185 182 179 179 179 187 191 192 192 193 194 197 199 202 205 205 205 208 212 209 212 216 218 216 217 221 222 220 222 228 233 237 240 248 255 259 262 267 269